Vertical_Velocity
3 4 2 1 -0 -1 -4 -1 -1 -4 -7 -1 -0 -2 -4 -0 1 1 2 2 1 1 2 1 0 -0 -1 -1 -1 -1 -2 -3 -2 -1 -1 -1 -1 -1 -1 -1 -1 -1 -1 -1 -1 -1 -2 -1 2 4 2 0 -0 -0 0 0 0 0 0 0 0 0 0 0 0 -0 -0 -1 -1 -1 -1 -1 -1 -2 -2 -2 -2 -2 -2 -2 -2 -1 -1 -1 -0 -0
1 4 4 3 3 2 -4 0 2 -0 -7 -2 -0 -1 -3 -2 -1 0 2 1 1 1 3 2 2 2 2 1 2 2 -1 -1 -1 -1 -1 -2 -2 -2 -1 -1 -0 -0 -0 -0 -0 -1 -3 -2 -0 1 1 0 0 0 0 0 -0 -0 -0 -0 -0 -0 0 0 -0 -0 -0 -1 -1 -1 -1 -1 -1 -1 -1 -1 -1 -1 -1 -2 -1 -1 -1 -0 -0 0
0 1 1 4 5 3 -2 2 3 2 -3 -1 -0 1 1 -1 -2 -0 2 -1 -1 0 3 3 2 2 1 2 3 2 -1 -1 -0 -0 -1 -1 -2 -2 -2 -1 0 1 1 1 0 -1 -2 -2 -1 -0 0 1 1 1 1 1 0 0 0 -0 -0 -0 -0 -0 -0 -1 -1 -1 -1 -1 -1 -1 -1 -1 -1 -1 -1 -1 -1 -1 -1 -1 -1 -1 -0 -0
-0 -2 -4 2 3 1 -1 2 2 1 1 1 0 0 3 1 -0 -0 1 -0 -1 -1 2 3 2 1 -0 2 3 2 -0 -1 -1 -0 0 0 -0 -0 -0 0 1 1 2 1 0 -0 -1 -1 -1 -0 0 1 1 1 1 1 1 1 0 -0 -0 -0 -0 -1 -1 -1 -1 -1 -2 -2 -2 -2 -2 -2 -2 -2 -2 -2 -2 -2 -2 -1 -1 -1 -1 -1
-2 -5 -7 1 1 -3 -3 2 0 -1 1 2 1 0 2 1 0 -0 0 1 0 -0 -0 2 3 2 0 1 2 3 2 -0 -1 -0 1 1 2 2 2 1 1 1 2 1 1 -0 -1 -1 -1 -0 0 1 1 1 1 1 0 0 -0 -0 -1 -1 -1 -1 -1 -2 -2 -2 -2 -2 -2 -2 -2 -3 -3 -3 -3 -3 -2 -2 -2 -2 -2 -2 -2 -2
-3 -5 -8 -0 -1 -4 -3 -0 -1 -2 0 -0 -0 1 1 -0 -0 1 1 1 1 1 -1 1 2 2 1 1 2 3 3 2 1 0 1 1 2 3 3 3 2 1 1 1 0 -0 -1 -1 -1 -0 -0 0 0 0 -0 -0 -0 -0 -1 -1 -1 -1 -1 -1 -1 -2 -2 -2 -2 -2 -2 -2 -2 -2 -2 -2 -2 -2 -2 -2 -2 -2 -2 -2 -2 -2
-4 -5 -4 -2 -3 -4 1 -1 -2 -1 2 -2 -2 -0 2 -1 -1 0 -0 1 2 1 -0 0 2 3 3 2 2 3 4 3 2 2 1 2 2 2 3 3 2 2 1 0 -0 -1 -1 -1 -1 -1 -0 -0 -0 -0 -1 -1 -1 -1 -1 -1 -2 -1 -1 -1 -1 -1 -1 -1 -1 -1 -1 -1 -1 -1 -1 -1 -1 -1 -1 -1 -1 -2 -2 -2 -2 -1
-4 -5 1 -1 -4 -4 2 -0 -1 -0 1 -3 -2 -0 2 -0 -1 -1 -1 0 2 2 2 0 1 2 5 3 1 1 2 4 4 2 0 1 1 1 1 1 1 1 1 1 -0 -1 -1 -1 -1 -1 -0 -0 -0 -1 -1 -1 -1 -2 -2 -2 -2 -2 -2 -1 -0 -0 -0 -0 -0 -1 -1 -1 -1 -1 -1 -1 -1 -1 -1 -1 -1 -1 -1 -1 -1 -1
-3 -5 -1 -0 -1 -3 -2 -2 0 2 1 -4 -3 0 3 -0 -2 -2 1 1 1 1 4 2 -0 0 4 4 2 -0 -2 2 4 4 1 -0 -0 0 2 1 0 -0 0 0 -0 -1 -1 -1 -1 -1 -0 -1 -1 -1 -1 -2 -2 -2 -2 -0 0 -0 -1 -1 -0 0 0 0 -0 -0 -0 -0 -1 -1 -1 -1 -1 -1 -1 -1 -1 -1 -1 -1 -1 -1
-1 -3 -4 -3 -0 1 -1 -6 -4 2 7 -3 -5 -2 6 2 -2 -3 2 2 1 1 4 1 -0 1 3 4 3 1 -2 -3 -0 3 6 0 -2 -2 2 3 2 0 0 0 -0 -1 -1 -1 -1 -1 -1 -1 -1 -1 -2 -2 -1 -1 -1 1 2 2 2 1 1 1 1 0 0 0 -0 -0 -0 -1 -1 -0 -0 -0 -0 -0 -0 -0 -1 -1 -1 -1
-2 -1 -1 -4 -2 1 5 -4 -6 -1 8 0 -5 -4 5 5 1 -2 -2 -2 1 5 4 -2 -1 3 5 -0 -1 1 3 -2 -5 -3 4 3 -0 -2 0 2 2 2 2 1 0 -0 -0 -0 -1 -1 -1 -0 -1 -1 -2 -2 -1 -1 0 1 3 4 4 3 2 2 2 1 1 1 0 -0 -0 -0 -0 -0 -0 -1 -1 -1 -1 -1 -1 -1 -1 -1
-1 -0 2 -2 -2 0 4 -1 -3 -1 5 2 -1 -3 0 3 4 2 -4 -6 1 8 6 -4 -4 2 7 1 -4 -5 2 2 -2 -5 -1 1 1 1 2 0 1 2 4 2 0 -0 1 0 -1 -1 -0 -0 -1 -2 -2 -2 -1 -0 1 2 3 4 4 3 3 2 2 2 1 1 0 -0 -0 -0 -0 -0 -1 -1 -1 -1 -1 -1 -1 -1 -1 -1
1 2 2 -1 -0 2 3 0 -1 -0 2 3 1 -2 -5 -1 4 5 -3 -7 -1 7 8 -1 -5 -2 6 5 -2 -7 -4 -0 -0 -1 1 -1 -1 1 4 -1 -1 1 6 2 -2 -2 2 1 -2 -3 0 -0 -2 -3 -1 -2 -1 0 1 2 2 2 2 2 1 1 0 0 -0 -0 -0 -0 -0 -0 -0 -1 -1 -1 -1 -1 -1 -1 -1 -1 -1 -1
1 3 3 -0 0 2 4 1 -1 -2 -1 1 1 -2 -7 -2 3 5 -1 -6 -3 3 10 -0 -7 -6 5 5 -1 -6 -5 -4 -3 -1 2 -2 -1 2 5 -3 -4 1 9 2 -5 -6 1 1 -3 -6 -1 1 -0 -2 1 1 1 2 3 2 2 2 1 0 -0 -0 -1 -1 -0 -0 -0 -0 -0 -0 -0 -0 -0 -1 -1 -1 -1 -1 -1 -1 -1 -0
2 3 1 -2 -0 2 3 -0 -2 -4 -4 1 1 -2 -7 -2 1 3 1 -7 -7 -1 9 -2 -8 -7 2 2 -1 -5 -8 -7 -3 1 0 -5 -3 2 6 -4 -6 -1 11 3 -6 -10 -1 1 -3 -6 -0 3 4 4 4 4 4 4 3 3 2 1 1 0 -0 -0 -0 0 0 0 1 1 1 1 0 0 -0 -0 -0 -0 -0 -0 -0 0 1 1
3 3 -2 -4 -1 2 0 -0 -2 -4 -6 1 2 -0 -4 -4 -2 1 4 -6 -8 -2 6 -2 -6 -7 -5 0 3 -0 -10 -12 -6 2 8 -3 -5 -1 9 -3 -8 -5 9 5 -4 -8 -3 2 3 3 6 7 7 7 6 4 3 3 3 2 2 1 1 0 0 0 1 1 1 1 1 1 1 1 1 0 0 0 0 0 1 1 1 2 2 2
2 1 -4 -2 -1 -0 -1 1 -2 -5 -4 1 1 0 -0 -3 -3 -1 2 -4 -4 -2 -1 -0 -1 -5 -11 -4 2 5 1 -13 -15 -6 14 2 -4 -3 8 -3 -9 -7 5 6 3 1 5 7 9 10 10 8 7 5 4 2 2 1 1 1 1 1 0 0 0 0 1 1 1 1 1 1 1 1 1 1 1 1 1 1 2 2 2 3 3 3
2 1 -2 -2 -2 -1 1 1 -3 -4 -0 1 -0 -1 0 -1 -1 -1 -2 -2 -1 -1 -5 -1 -0 -2 -4 -8 -8 -0 15 -6 -16 -12 8 4 -1 -1 3 -3 -7 -5 4 6 6 7 10 10 10 10 8 5 4 3 1 1 1 1 1 1 1 0 -1 -1 -1 -0 -0 -0 -0 0 0 1 1 1 1 1 1 2 2 2 2 3 3 3 3 3
0 3 1 -4 -4 -1 3 0 -1 -1 0 -0 0 0 -2 -3 -0 1 -4 -3 -1 -1 -4 -4 -4 -2 3 -6 -10 -5 12 -1 -10 -10 2 2 1 1 4 -1 -6 -6 2 5 6 7 8 8 8 7 4 2 1 1 -0 -0 -0 1 1 1 -0 -1 -2 -2 -2 -1 -1 -1 -1 -1 -0 0 0 1 1 1 2 2 2 2 2 3 3 3 3 3
-1 2 2 -1 -2 -2 -0 1 2 1 -3 -3 -0 1 -4 -3 -1 -1 -5 -3 -3 -3 -3 -3 -4 -4 1 -4 -7 -6 4 -1 -8 -9 -1 1 -1 -1 4 -1 -6 -8 -0 0 0 0 2 2 4 4 2 0 -0 -0 -1 -2 -2 -1 -1 -1 -2 -3 -3 -3 -2 -2 -2 -2 -1 -1 -1 -0 0 1 1 1 2 2 2 2 2 2 2 2 2 2
-1 -1 1 3 0 -4 -4 1 3 1 -4 -4 -2 -2 -3 -2 -3 -4 -5 -2 -3 -5 -3 -2 -4 -5 -0 -3 -6 -5 2 -1 -7 -10 -3 1 -0 -1 3 -2 -5 -5 -1 -2 -3 -4 -3 -2 -0 1 0 -1 -2 -2 -3 -4 -4 -4 -4 -4 -4 -4 -4 -3 -3 -3 -3 -2 -2 -1 -1 -0 0 1 1 2 2 2 2 2 2 1 1 1 1 1
-1 -1 1 4 0 -4 -5 0 2 0 -3 -3 -4 -4 -3 -1 -4 -6 -4 -1 -3 -5 -4 -4 -4 -4 -2 -4 -5 -4 3 -1 -6 -7 -3 -1 -1 0 4 -1 -3 -3 1 -1 -3 -4 -3 -3 -2 -1 -1 -2 -3 -4 -5 -6 -6 -6 -5 -4 -4 -4 -4 -4 -4 -4 -3 -3 -2 -2 -1 -0 0 1 1 1 2 2 2 2 2 2 1 1 1 1
-0 -0 2 2 -0 -3 -4 -2 -1 -2 -2 -3 -5 -5 -2 -1 -3 -5 -3 -2 -3 -5 -6 -5 -5 -4 -2 -3 -4 -4 -1 -1 -4 -5 -2 -2 -1 1 4 1 -1 -1 1 0 -2 -3 -2 -0 -1 -2 -2 -2 -3 -4 -6 -6 -5 -5 -4 -4 -4 -4 -4 -4 -4 -4 -4 -3 -2 -2 -1 -0 -0 0 0 1 1 1 2 2 2 2 2 2 2 2
-0 -0 0 0 -1 -2 -3 -3 -3 -3 -3 -4 -4 -4 -3 -1 -2 -3 -2 -2 -3 -5 -5 -5 -4 -4 -4 -2 -4 -5 -4 -2 -3 -4 -3 -2 -2 -0 2 1 -0 -0 0 2 1 -0 0 2 1 -1 -2 -3 -3 -3 -5 -4 -4 -4 -4 -4 -4 -4 -5 -5 -5 -4 -4 -3 -2 -2 -1 -1 -1 -0 -0 -0 0 1 1 2 2 2 2 2 2 3
-1 -1 -1 -1 -1 -2 -3 -3 -4 -4 -4 -4 -4 -3 -2 -2 -2 -2 -2 -3 -3 -4 -5 -4 -4 -4 -5 -3 -4 -5 -5 -3 -3 -4 -3 -3 -2 -1 -0 0 0 0 2 3 3 2 3 2 1 -0 -1 -2 -3 -3 -3 -4 -4 -4 -4 -4 -4 -4 -5 -5 -4 -4 -3 -3 -2 -2 -1 -1 -1 -0 -0 0 0 1 1 1 1 1 1 2 2 4
-2 -2 -2 -2 -2 -2 -3 -3 -4 -4 -4 -4 -3 -3 -1 -1 -2 -2 -3 -3 -4 -4 -5 -4 -4 -4 -4 -3 -3 -4 -4 -4 -3 -3 -4 -4 -3 -2 -1 -1 -0 1 3 4 4 3 3 2 1 -0 -2 -3 -3 -3 -3 -3 -3 -3 -3 -4 -4 -4 -4 -4 -4 -4 -4 -3 -2 -2 -1 -1 -0 0 0 0 1 1 1 1 1 0 0 1 2 3
-3 -3 -3 -3 -3 -3 -3 -4 -4 -4 -4 -4 -3 -2 -1 -1 -2 -3 -3 -4 -4 -4 -4 -3 -4 -4 -4 -2 -2 -3 -3 -3 -4 -5 -5 -4 -3 -2 -1 -1 -0 1 2 3 3 3 3 2 1 -0 -2 -4 -4 -4 -3 -3 -3 -3 -3 -4 -4 -4 -4 -4 -4 -4 -4 -3 -2 -1 -1 -0 0 0 1 1 1 1 1 0 -0 -1 -1 -0 1 2
-3 -3 -3 -3 -3 -3 -4 -4 -4 -4 -4 -4 -3 -3 -2 -2 -2 -3 -4 -4 -4 -4 -3 -2 -2 -3 -2 -0 -1 -2 -2 -4 -6 -8 -6 -3 -1 -0 -0 -0 1 1 1 1 2 3 4 3 1 -0 -1 -3 -3 -4 -4 -4 -4 -4 -4 -4 -3 -3 -4 -4 -4 -4 -3 -2 -2 -1 -0 -0 0 1 1 1 1 1 0 -0 -1 -2 -2 -0 1 2
-3 -3 -3 -3 -3 -3 -4 -4 -4 -4 -4 -4 -4 -4 -3 -3 -3 -4 -4 -3 -3 -2 -2 -1 -1 -1 -1 -0 0 -0 -1 -5 -8 -9 -5 -1 -0 -0 1 2 1 -0 -0 -0 1 3 5 3 2 1 0 -1 -2 -3 -5 -5 -5 -5 -5 -4 -3 -3 -4 -4 -4 -3 -2 -2 -1 -1 -0 -0 0 0 0 0 0 -0 -0 -1 -2 -2 -2 -0 1 2
-3 -3 -3 -3 -3 -3 -4 -4 -4 -4 -3 -4 -4 -4 -5 -4 -4 -4 -4 -2 -1 -1 -1 -1 -1 -1 -1 0 1 1 -2 -7 -9 -8 -3 1 -0 -1 1 1 -1 -3 -2 -1 1 4 5 4 4 3 2 1 -0 -3 -6 -8 -8 -7 -6 -4 -4 -4 -4 -4 -4 -3 -2 -2 -2 -1 -1 -1 -1 -0 -0 -0 -0 -0 -0 -1 -2 -2 -2 -0 1 1
-3 -3 -3 -3 -3 -3 -4 -4 -4 -3 -3 -3 -4 -5 -5 -4 -4 -4 -3 -2 -1 -0 -0 -0 -1 -1 -1 1 2 2 -2 -8 -10 -7 -0 2 -0 -2 0 0 -3 -6 -5 -1 2 4 4 5 5 4 4 4 1 -1 -5 -7 -8 -8 -6 -4 -3 -4 -4 -4 -4 -4 -3 -2 -2 -2 -1 -1 -1 -1 -1 -1 -1 -1 -1 -1 -2 -3 -3 -1 -0 0
-2 -2 -2 -2 -2 -2 -3 -3 -3 -3 -2 -3 -4 -4 -4 -4 -4 -3 -3 -2 -1 -0 -0 -1 -1 -1 -1 0 2 2 -1 -6 -8 -7 0 3 1 -2 -0 0 -2 -6 -7 -3 1 4 5 6 5 5 6 5 2 -1 -4 -6 -7 -7 -6 -4 -4 -4 -5 -4 -4 -4 -3 -2 -1 -1 -1 -1 -1 -1 -1 -1 -1 -1 -2 -2 -3 -4 -4 -3 -2 -1
-2 -2 -2 -2 -2 -2 -2 -2 -1 -1 -1 -2 -3 -3 -4 -4 -4 -3 -3 -2 -1 -1 -0 -1 -1 -2 -2 -1 0 1 -1 -5 -7 -6 0 4 3 0 -0 1 -1 -4 -6 -4 -2 1 5 6 6 7 7 6 4 1 -3 -5 -6 -6 -5 -4 -4 -5 -5 -4 -3 -3 -3 -1 -1 -1 -2 -2 -2 -2 -2 -2 -2 -2 -3 -3 -4 -5 -5 -4 -4 -3
-2 -2 -2 -2 -2 -2 -1 -1 -0 0 0 -0 -1 -2 -3 -3 -3 -3 -3 -3 -2 -1 -1 -1 -1 -1 -1 -1 -1 -1 -2 -5 -6 -5 0 3 3 1 0 1 -1 -2 -3 -3 -3 -1 2 4 6 8 7 6 4 2 -1 -4 -4 -4 -3 -3 -3 -4 -5 -3 -3 -2 -3 -1 -1 -2 -3 -3 -3 -3 -2 -2 -3 -3 -3 -3 -4 -5 -6 -6 -5 -5
-2 -2 -2 -2 -2 -1 -1 -0 0 1 1 0 -0 -1 -2 -2 -2 -2 -3 -3 -3 -2 -2 -2 -1 -1 -0 -0 -1 -2 -4 -7 -7 -5 -1 1 1 0 0 -0 -1 -1 -0 -2 -1 0 1 1 3 6 6 5 4 3 -0 -2 -2 -2 -3 -3 -3 -3 -3 -3 -2 -2 -2 -1 -1 -2 -3 -2 -2 -2 -2 -2 -2 -2 -3 -3 -4 -5 -6 -6 -6 -6
-2 -2 -2 -2 -1 -1 -0 -0 -0 0 0 -0 -0 -0 -0 -0 -1 -1 -1 -2 -2 -2 -3 -3 -2 -2 -1 -0 -0 -1 -4 -6 -6 -5 -3 -1 -0 1 1 -1 -1 -0 1 -1 -1 1 2 1 1 3 4 5 4 3 1 -1 -1 -2 -3 -4 -3 -3 -3 -3 -2 -2 -1 -1 -1 -2 -3 -2 -2 -2 -1 -1 -1 -1 -2 -2 -2 -4 -5 -5 -6 -6
-2 -2 -2 -2 -2 -1 -1 -0 -0 -0 -0 -1 -1 -0 -0 0 0 0 -0 -1 -1 -2 -2 -2 -3 -2 -2 -2 -1 -1 -3 -4 -5 -5 -4 -2 -0 1 2 -1 -1 0 3 1 -0 -0 1 1 1 1 2 3 4 4 2 0 -1 -2 -4 -4 -3 -2 -4 -4 -3 -2 -2 -2 -2 -2 -2 -2 -2 -2 -1 -1 -1 -1 -1 -1 -1 -2 -3 -4 -4 -5
-2 -2 -2 -2 -2 -1 -1 -1 -1 -1 -1 -1 -1 -1 -0 -0 0 -0 -0 -0 -1 -1 -2 -2 -2 -3 -3 -3 -3 -3 -3 -3 -3 -4 -3 -2 -0 1 3 0 -1 -1 1 1 1 0 1 1 1 1 1 1 2 3 3 2 1 -1 -3 -2 -1 -0 -2 -3 -3 -2 -2 -2 -2 -2 -1 -1 -1 -1 -1 -0 -0 0 0 0 -0 -0 -1 -2 -2 -2
-2 -2 -2 -2 -1 -1 -1 -1 -1 -1 -1 -1 -1 -1 -1 -1 -1 -0 -0 -1 -1 -1 -1 -1 -1 -2 -2 -3 -3 -4 -3 -3 -2 -2 -2 -2 -1 1 2 1 -0 -1 -1 0 0 0 0 0 1 1 1 1 1 1 1 1 0 -1 -1 -0 0 -0 -1 -2 -2 -2 -2 -1 -1 -1 -1 -1 -1 -0 0 0 1 2 1 1 1 1 0 -1 -1 -2
-2 -1 -1 -1 -1 -1 -1 -1 -2 -2 -1 -1 -1 -1 -1 -1 -1 -1 -1 -1 -1 -1 -1 -1 -1 -1 -1 -2 -2 -3 -3 -2 -2 -1 -1 -1 -1 -0 1 1 0 -1 -1 -1 -0 -0 0 -0 -1 -0 1 1 2 2 2 0 -2 -3 -1 1 2 1 -0 -1 -2 -3 -3 -1 0 0 -0 -0 1 1 1 2 2 3 2 2 2 2 2 2 1 0
-1 -1 -1 -1 -1 -1 -1 -1 -1 -1 -1 -2 -2 -2 -2 -2 -1 -1 -2 -2 -2 -1 -1 -0 -0 -0 -1 -1 -2 -2 -2 -2 -1 -1 -0 -0 -1 -0 0 0 0 -0 -0 -0 -1 -1 -0 -0 -1 -2 -2 -1 0 2 3 1 -1 -2 -1 1 2 3 4 3 0 -2 -2 -0 0 1 1 1 2 2 3 3 3 3 3 3 3 2 2 2 2 3
-0 -0 -1 -1 -1 -1 -1 -1 -1 -2 -2 -2 -2 -2 -3 -2 -2 -1 -2 -2 -2 -2 -1 0 1 0 -1 -3 -3 -3 -1 -1 -0 -0 -0 -0 -0 -0 -0 -0 -0 0 1 0 -0 -1 -1 -1 -1 -1 -2 -1 0 1 1 0 -1 -1 -1 -1 -0 2 4 4 1 -0 1 0 0 1 1 1 2 2 4 4 4 3 3 3 3 3 3 2 1 2
-0 -0 -0 -0 -0 -1 -1 -1 -1 -2 -2 -2 -2 -3 -3 -2 -1 -1 -1 -2 -2 -2 -2 -0 1 1 0 -2 -4 -4 -3 -1 -0 0 -0 -0 0 1 1 0 1 1 2 2 0 -1 -2 -1 -0 -1 -2 -1 1 1 1 1 0 -0 -1 -2 -1 1 4 2 2 1 2 1 1 1 1 1 1 2 4 4 4 4 3 4 4 4 4 3 2 1
-0 -0 -1 -1 -1 -0 -0 -0 -1 -2 -2 -2 -3 -3 -3 -2 -1 -1 -1 -2 -2 -1 -1 -0 -0 1 1 -1 -3 -3 -3 -3 -2 -1 -1 -0 0 1 1 1 1 2 3 3 2 1 -1 -1 -1 -1 -1 -0 0 -0 -0 0 1 1 -0 -2 -1 0 2 2 3 3 3 2 2 1 0 0 0 1 3 4 4 3 4 4 3 3 3 2 2 2
-1 -1 -1 -1 -1 -1 -0 -1 -2 -2 -1 -2 -2 -2 -2 -2 -1 -1 -1 -1 -1 -1 -1 -0 0 -0 -1 -3 -2 -2 -2 -3 -3 -2 -2 -1 -0 1 2 2 1 1 2 2 3 3 3 1 -1 -2 -2 -1 -0 -0 -1 -1 -0 1 1 -0 -1 -1 -0 1 2 3 3 2 2 1 -0 -1 -0 0 1 2 3 3 4 3 3 2 2 2 2 1
-1 -2 -2 -2 -1 -1 -1 -2 -2 -1 -1 -2 -2 -2 -2 -1 -1 -1 -1 -0 -0 -1 -2 -1 0 -0 -2 -3 -2 -2 -2 -3 -3 -3 -2 -2 -1 -0 1 1 1 1 1 1 1 1 3 2 0 -1 -2 -2 -1 -1 -1 -1 -1 -1 -0 -0 -0 -0 -1 -0 -0 0 1 1 1 0 -1 -1 -1 -1 -1 -0 2 3 4 4 3 2 2 2 2 2
-2 -2 -2 -2 -1 -1 -1 -2 -1 -1 -1 -2 -2 -1 -1 -1 -1 -1 -1 -0 -0 -0 -2 -2 -1 -1 -2 -2 -2 -1 -1 -2 -3 -3 -3 -2 -2 -1 -1 -0 -0 0 1 1 0 -0 -0 -0 -1 -1 -2 -2 -2 -1 -2 -2 -3 -3 -3 -2 -1 -0 0 -0 -1 -1 -1 0 0 -0 -2 -2 -2 -3 -3 -1 1 3 4 4 3 3 3 2 2 1
-1 -1 -1 -1 -1 -1 -2 -2 -1 -1 -1 -2 -2 -2 -1 -1 -0 -0 -1 -1 -1 -1 -1 -2 -2 -2 -2 -2 -1 -1 -0 -1 -2 -2 -2 -2 -2 -2 -1 -1 -1 -1 -0 0 1 0 -0 -1 -2 -3 -3 -3 -2 -2 -1 -3 -4 -5 -5 -4 -2 -1 0 0 -0 -0 -1 -0 -0 -0 -1 -1 -2 -3 -4 -2 -0 2 4 4 4 3 3 2 1 1
-0 -0 -0 -0 -0 -1 -2 -2 -2 -1 -1 -2 -2 -2 -2 -1 -0 0 -0 -1 -1 -1 -1 -2 -2 -2 -2 -2 -2 -1 -0 -0 -1 -1 -1 -1 -1 -1 -1 -2 -1 -1 -1 -1 -0 -0 -0 -0 -1 -3 -4 -3 -3 -2 -2 -3 -4 -5 -5 -4 -3 -1 -0 0 0 0 0 -0 -0 -0 -0 -1 -2 -3 -4 -4 -2 -0 3 5 5 5 3 1 0 -0
1 1 1 0 -0 -1 -2 -2 -2 -2 -2 -2 -2 -2 -2 -2 -1 -1 -0 -0 -1 -1 -1 -1 -1 -1 -1 -2 -2 -1 -1 -1 -1 -1 -1 -1 -0 -0 -1 -1 -1 -0 -1 -1 -1 -1 -0 -0 -1 -4 -6 -5 -3 -2 -3 -5 -6 -5 -4 -4 -3 -1 -0 -0 -0 0 1 0 -0 -0 -0 -1 -3 -4 -4 -5 -5 -3 1 5 6 6 4 1 -1 -1
1 1 0 -0 -1 -1 -2 -2 -2 -1 -2 -1 -1 -2 -2 -2 -2 -1 -1 -1 -1 -1 -1 -1 -0 -0 -1 -2 -2 -1 -1 -0 -0 -1 -1 -1 -1 -0 -1 -1 -0 0 0 -0 -0 -0 1 2 0 -3 -8 -10 -7 -3 -2 -6 -7 -7 -5 -4 -3 -2 -1 -1 -1 -0 1 0 0 -0 -0 -1 -2 -3 -3 -4 -5 -5 -2 3 7 8 6 2 -1 -2
Height
5684 5683 5684 5684 5684 5683 5682 5682 5683 5683 5682 5681 5680 5680 5679 5677 5676 5675 5674 5673 5672 5671 5670 5669 5668 5667 5667 5666 5665 5665 5664 5663 5662 5662 5662 5661 5660 5659 5659 5658 5657 5656 5655 5654 5653 5652 5652 5652 5651 5650 5650 5649 5648 5647 5646 5646 5645 5643 5642 5642 5641 5639 5638 5637 5636 5634 5633 5632 5631 5630 5629 5628 5627 5626 5625 5624 5623 5622 5621 5620 5619 5618 5617 5616 5615 5614
5680 5679 5679 5679 5679 5679 5678 5677 5678 5678 5678 5677 5676 5675 5675 5674 5672 5671 5670 5669 5668 5667 5666 5665 5663 5662 5662 5661 5660 5659 5658 5657 5657 5656 5656 5655 5654 5653 5653 5652 5651 5650 5649 5649 5648 5647 5646 5645 5644 5644 5643 5642 5642 5641 5640 5639 5638 5637 5636 5635 5634 5633 5632 5631 5629 5628 5627 5626 5625 5624 5623 5622 5621 5620 5619 5617 5617 5616 5614 5613 5612 5612 5610 5609 5608 5607
5676 5675 5675 5674 5675 5675 5674 5673 5673 5673 5673 5672 5671 5670 5670 5670 5668 5667 5666 5665 5664 5663 5662 5661 5660 5658 5657 5656 5655 5654 5653 5652 5651 5651 5650 5649 5648 5647 5647 5646 5646 5645 5644 5643 5642 5641 5640 5639 5638 5638 5637 5636 5635 5635 5634 5633 5632 5631 5630 5629 5627 5627 5625 5624 5623 5622 5620 5619 5618 5617 5616 5615 5614 5613 5612 5611 5610 5609 5608 5607 5606 5605 5604 5603 5602 5601
5672 5671 5670 5670 5670 5670 5669 5668 5667 5667 5667 5667 5666 5665 5665 5664 5663 5662 5661 5660 5660 5658 5657 5656 5655 5654 5653 5651 5650 5649 5648 5647 5646 5645 5644 5643 5643 5642 5641 5640 5639 5638 5637 5637 5636 5635 5634 5633 5632 5632 5631 5630 5629 5628 5627 5627 5626 5624 5623 5622 5621 5620 5619 5618 5617 5615 5614 5613 5612 5611 5610 5608 5607 5607 5606 5605 5603 5602 5602 5600 5599 5598 5597 5596 5595 5594
5667 5666 5665 5665 5665 5664 5664 5663 5662 5662 5662 5661 5660 5660 5659 5659 5658 5657 5656 5655 5654 5653 5652 5651 5650 5649 5647 5646 5645 5643 5642 5641 5640 5639 5638 5638 5637 5636 5635 5634 5633 5632 5631 5630 5629 5628 5628 5627 5627 5626 5625 5624 5623 5622 5621 5620 5619 5618 5617 5616 5615 5614 5613 5612 5610 5609 5608 5607 5605 5604 5603 5602 5601 5600 5599 5598 5597 5596 5595 5594 5593 5592 5591 5590 5589 5588
5660 5661 5660 5660 5659 5659 5658 5657 5657 5657 5656 5655 5655 5654 5654 5653 5652 5651 5650 5649 5648 5647 5646 5645 5644 5643 5642 5640 5639 5637 5636 5635 5634 5633 5632 5632 5631 5630 5629 5628 5627 5626 5625 5624 5623 5622 5622 5621 5620 5620 5619 5618 5617 5616 5615 5614 5613 5612 5611 5610 5609 5608 5607 5605 5604 5603 5602 5600 5599 5598 5597 5596 5595 5594 5593 5592 5591 5590 5589 5588 5587 5586 5585 5584 5583 5582
5654 5654 5654 5654 5653 5652 5652 5652 5652 5651 5651 5650 5649 5648 5648 5647 5647 5646 5645 5643 5642 5642 5640 5639 5638 5637 5636 5634 5633 5632 5630 5629 5628 5627 5626 5625 5624 5623 5622 5622 5621 5620 5619 5617 5617 5616 5615 5615 5614 5613 5613 5612 5611 5610 5609 5608 5607 5606 5605 5604 5603 5602 5601 5599 5598 5597 5596 5594 5593 5592 5591 5590 5589 5588 5587 5586 5585 5584 5583 5582 5581 5580 5579 5578 5577 5576
5647 5647 5648 5648 5647 5647 5646 5646 5645 5645 5645 5644 5643 5642 5642 5641 5641 5640 5639 5637 5636 5635 5634 5633 5632 5630 5629 5628 5627 5626 5624 5622 5621 5621 5620 5619 5618 5617 5616 5615 5614 5613 5612 5611 5611 5610 5609 5608 5608 5607 5607 5606 5605 5604 5603 5602 5601 5600 5599 5598 5597 5596 5594 5593 5592 5591 5590 5589 5587 5587 5586 5584 5583 5582 5582 5581 5580 5579 5577 5577 5576 5574 5573 5572 5571 5570
5641 5641 5641 5641 5641 5641 5641 5640 5639 5638 5638 5639 5638 5637 5635 5635 5634 5634 5632 5632 5631 5629 5628 5627 5626 5624 5622 5621 5621 5620 5618 5616 5615 5614 5614 5613 5612 5611 5610 5609 5608 5607 5606 5605 5604 5603 5603 5602 5602 5601 5600 5600 5599 5598 5597 5597 5596 5595 5594 5592 5591 5590 5589 5588 5587 5586 5584 5583 5582 5581 5580 5579 5578 5577 5576 5575 5574 5573 5572 5571 5570 5568 5567 5566 5565 5564
5635 5635 5635 5634 5635 5635 5635 5634 5632 5631 5632 5632 5632 5630 5629 5628 5628 5627 5626 5625 5624 5623 5622 5621 5620 5618 5616 5614 5613 5613 5612 5611 5609 5608 5607 5607 5606 5605 5604 5603 5602 5601 5600 5599 5598 5597 5597 5596 5596 5595 5594 5594 5593 5592 5592 5591 5590 5589 5588 5587 5586 5585 5583 5582 5581 5580 5579 5578 5577 5576 5574 5573 5572 5571 5570 5569 5568 5567 5566 5565 5564 5563 5562 5561 5559 5558
5629 5629 5629 5629 5628 5628 5628 5628 5627 5625 5625 5626 5625 5624 5622 5622 5622 5621 5620 5618 5617 5616 5616 5615 5613 5612 5610 5609 5607 5606 5605 5605 5604 5602 5601 5601 5600 5599 5598 5597 5596 5595 5594 5593 5592 5591 5591 5590 5590 5589 5589 5588 5587 5587 5586 5585 5584 5583 5582 5582 5581 5580 5578 5577 5576 5575 5574 5572 5571 5570 5569 5568 5567 5566 5565 5563 5562 5561 5560 5559 5558 5557 5556 5555 5553 5552
5623 5623 5623 5623 5622 5622 5622 5621 5620 5619 5619 5619 5619 5617 5616 5615 5615 5615 5615 5612 5610 5609 5609 5609 5607 5606 5604 5603 5601 5599 5598 5598 5597 5597 5596 5595 5594 5593 5592 5591 5590 5589 5588 5587 5586 5585 5584 5584 5584 5584 5583 5582 5581 5581 5580 5579 5578 5577 5577 5576 5575 5574 5573 5572 5571 5569 5568 5567 5566 5565 5564 5562 5562 5560 5559 5558 5557 5555 5554 5553 5552 5551 5550 5549 5548 5547
5617 5617 5617 5617 5616 5616 5615 5615 5614 5613 5613 5612 5612 5612 5610 5609 5608 5608 5609 5607 5605 5604 5603 5603 5601 5599 5597 5596 5596 5594 5592 5591 5591 5590 5590 5589 5588 5587 5586 5585 5584 5583 5582 5582 5581 5580 5578 5578 5578 5578 5577 5576 5575 5574 5573 5572 5572 5572 5571 5570 5569 5568 5567 5567 5565 5564 5563 5562 5561 5559 5558 5557 5556 5555 5553 5552 5551 5549 5548 5547 5546 5545 5544 5543 5542 5541
5612 5611 5611 5611 5610 5609 5609 5609 5608 5608 5607 5606 5606 5606 5605 5604 5603 5602 5602 5602 5600 5598 5597 5597 5596 5593 5590 5589 5589 5588 5587 5586 5585 5584 5583 5583 5582 5581 5580 5580 5578 5577 5576 5576 5576 5574 5573 5573 5573 5572 5571 5570 5569 5568 5568 5567 5567 5566 5566 5565 5564 5563 5562 5561 5560 5559 5557 5557 5555 5554 5553 5552 5550 5549 5548 5546 5545 5544 5543 5542 5541 5539 5538 5537 5537 5536
5606 5606 5606 5606 5605 5604 5603 5603 5603 5602 5601 5601 5601 5601 5600 5599 5598 5597 5597 5596 5594 5593 5592 5592 5590 5588 5585 5584 5583 5582 5582 5581 5579 5578 5578 5577 5576 5575 5574 5574 5573 5571 5570 5570 5570 5569 5567 5568 5568 5567 5566 5565 5564 5563 5562 5562 5562 5561 5561 5560 5559 5558 5557 5556 5555 5553 5552 5551 5550 5549 5547 5546 5545 5543 5542 5541 5539 5538 5537 5536 5535 5534 5533 5532 5531 5530
5600 5601 5601 5600 5599 5598 5598 5598 5598 5597 5597 5596 5595 5596 5596 5594 5593 5592 5591 5590 5589 5587 5587 5586 5585 5582 5580 5578 5577 5577 5577 5576 5574 5573 5572 5572 5570 5568 5568 5569 5568 5566 5565 5565 5565 5565 5563 5563 5563 5562 5561 5560 5559 5558 5557 5557 5557 5556 5556 5555 5554 5553 5552 5550 5549 5548 5547 5546 5544 5543 5542 5541 5539 5538 5537 5535 5534 5533 5532 5531 5530 5529 5528 5527 5526 5525
5595 5595 5595 5595 5594 5593 5592 5592 5593 5593 5592 5591 5591 5590 5590 5589 5588 5587 5586 5585 5584 5582 5582 5580 5579 5577 5575 5573 5571 5570 5571 5571 5570 5568 5567 5566 5564 5562 5562 5563 5563 5562 5560 5561 5561 5561 5560 5559 5558 5557 5556 5555 5554 5553 5552 5552 5552 5551 5550 5549 5548 5547 5546 5545 5543 5542 5541 5540 5539 5538 5537 5535 5534 5532 5531 5530 5529 5527 5527 5525 5524 5523 5522 5521 5520 5519
5590 5590 5590 5589 5589 5588 5587 5587 5588 5587 5587 5586 5586 5585 5584 5584 5583 5582 5582 5580 5579 5577 5576 5575 5574 5572 5571 5569 5566 5564 5564 5566 5565 5563 5562 5561 5559 5558 5557 5557 5558 5557 5557 5557 5556 5556 5555 5554 5553 5552 5551 5550 5549 5548 5547 5546 5546 5545 5544 5543 5542 5541 5540 5539 5538 5537 5536 5535 5534 5532 5531 5530 5528 5527 5526 5525 5523 5522 5521 5520 5519 5518 5517 5516 5515 5514
5584 5584 5584 5584 5584 5583 5582 5582 5583 5582 5582 5582 5581 5581 5580 5579 5578 5578 5577 5576 5574 5573 5572 5570 5569 5567 5566 5564 5562 5560 5559 5560 5560 5558 5557 5556 5555 5554 5553 5553 5552 5552 5552 5552 5551 5550 5550 5549 5548 5547 5546 5544 5543 5542 5541 5541 5540 5539 5538 5537 5536 5535 5534 5533 5532 5532 5531 5530 5528 5527 5526 5525 5523 5522 5521 5519 5518 5517 5516 5515 5514 5513 5512 5511 5510 5509
5580 5579 5580 5580 5579 5579 5578 5578 5578 5578 5578 5577 5577 5576 5576 5575 5574 5574 5573 5572 5570 5569 5567 5566 5564 5563 5561 5560 5558 5556 5555 5555 5555 5554 5552 5552 5551 5549 5548 5548 5548 5547 5547 5546 5546 5545 5545 5543 5542 5541 5540 5539 5538 5537 5536 5536 5535 5534 5533 5532 5531 5530 5529 5528 5527 5527 5526 5524 5523 5522 5521 5519 5518 5517 5515 5514 5513 5512 5511 5509 5508 5507 5506 5505 5504 5503
5576 5576 5575 5575 5576 5576 5575 5573 5573 5573 5574 5573 5573 5572 5572 5571 5570 5570 5568 5567 5566 5565 5563 5562 5560 5558 5557 5556 5554 5552 5550 5551 5551 5550 5548 5548 5547 5545 5544 5544 5544 5543 5542 5541 5540 5540 5540 5539 5538 5537 5536 5535 5534 5532 5532 5531 5530 5529 5528 5527 5527 5526 5525 5524 5522 5522 5521 5519 5518 5517 5516 5514 5513 5511 5510 5509 5507 5507 5505 5504 5503 5502 5501 5500 5499 5498
5572 5572 5571 5571 5572 5572 5571 5570 5569 5569 5570 5570 5569 5569 5568 5567 5567 5566 5564 5563 5562 5560 5559 5557 5556 5554 5553 5552 5550 5548 5547 5547 5547 5546 5544 5544 5543 5541 5540 5540 5540 5539 5537 5537 5536 5536 5535 5535 5534 5533 5532 5531 5529 5528 5527 5526 5526 5525 5524 5523 5522 5521 5520 5519 5518 5517 5516 5514 5513 5512 5510 5509 5507 5506 5505 5504 5502 5501 5500 5499 5498 5497 5496 5495 5494 5493
5569 5568 5567 5567 5567 5567 5567 5566 5566 5566 5566 5566 5566 5565 5564 5563 5562 5562 5560 5559 5557 5556 5555 5553 5552 5550 5549 5548 5546 5544 5542 5542 5542 5541 5541 5540 5538 5537 5536 5536 5536 5534 5533 5532 5532 5532 5531 5530 5529 5528 5527 5526 5525 5524 5522 5522 5521 5520 5519 5518 5517 5516 5515 5514 5513 5512 5510 5509 5507 5506 5505 5503 5502 5501 5500 5498 5497 5496 5495 5494 5493 5492 5491 5490 5489 5488
5565 5564 5564 5563 5563 5563 5563 5562 5562 5562 5562 5562 5561 5561 5560 5559 5558 5557 5556 5554 5553 5552 5550 5549 5548 5546 5545 5543 5542 5541 5538 5538 5538 5537 5537 5535 5534 5533 5532 5532 5531 5530 5529 5529 5528 5527 5527 5526 5525 5524 5523 5522 5520 5519 5518 5517 5516 5515 5514 5513 5512 5511 5510 5509 5507 5506 5505 5504 5502 5501 5499 5498 5497 5496 5494 5493 5492 5491 5490 5489 5487 5487 5486 5485 5484 5483
5561 5561 5560 5560 5559 5559 5559 5558 5558 5558 5558 5557 5557 5557 5556 5555 5554 5552 5551 5550 5549 5547 5547 5545 5544 5542 5541 5540 5539 5537 5535 5534 5534 5533 5532 5531 5530 5529 5528 5528 5527 5526 5525 5525 5524 5523 5522 5522 5520 5519 5518 5517 5516 5515 5514 5513 5512 5511 5510 5508 5507 5506 5505 5503 5502 5501 5500 5498 5497 5496 5494 5493 5492 5490 5489 5488 5487 5486 5484 5483 5482 5481 5480 5479 5479 5478
5557 5557 5556 5556 5556 5555 5555 5554 5554 5554 5554 5553 5553 5552 5552 5551 5550 5549 5547 5546 5545 5544 5543 5541 5539 5538 5537 5536 5534 5533 5531 5530 5530 5529 5529 5527 5526 5525 5525 5524 5523 5523 5522 5521 5521 5520 5519 5518 5517 5516 5514 5513 5512 5511 5510 5509 5507 5506 5505 5504 5502 5501 5500 5498 5497 5496 5494 5493 5492 5490 5489 5488 5486 5485 5484 5482 5482 5480 5479 5478 5477 5476 5475 5474 5473 5473
5553 5552 5552 5552 5552 5551 5551 5550 5550 5550 5550 5549 5549 5548 5548 5547 5546 5545 5543 5542 5542 5541 5539 5537 5535 5534 5533 5532 5530 5529 5527 5526 5526 5525 5525 5524 5523 5522 5521 5521 5520 5519 5518 5518 5517 5517 5516 5515 5513 5512 5511 5509 5508 5507 5506 5504 5503 5502 5500 5499 5497 5496 5494 5493 5492 5490 5489 5488 5487 5485 5484 5482 5481 5480 5479 5477 5476 5475 5474 5473 5472 5471 5470 5469 5468 5467
5549 5548 5548 5548 5547 5547 5547 5546 5546 5546 5545 5545 5545 5544 5544 5543 5542 5541 5539 5538 5538 5537 5535 5533 5532 5531 5529 5527 5526 5525 5524 5522 5522 5521 5521 5521 5519 5518 5518 5517 5517 5516 5515 5515 5514 5514 5513 5511 5510 5508 5507 5505 5504 5502 5501 5500 5498 5497 5495 5494 5492 5491 5489 5488 5487 5485 5484 5482 5481 5480 5479 5477 5476 5475 5474 5472 5471 5470 5469 5467 5466 5465 5464 5463 5463 5462
5545 5545 5544 5544 5543 5543 5542 5542 5542 5542 5541 5541 5540 5540 5539 5539 5538 5537 5535 5535 5534 5533 5531 5530 5529 5527 5526 5524 5522 5521 5520 5519 5518 5518 5517 5517 5516 5515 5515 5514 5513 5513 5512 5512 5511 5511 5510 5508 5506 5505 5503 5502 5500 5498 5496 5495 5493 5492 5490 5489 5487 5486 5484 5482 5481 5480 5479 5477 5476 5475 5474 5472 5471 5470 5468 5467 5466 5465 5463 5462 5461 5460 5459 5458 5457 5456
5541 5541 5541 5540 5539 5539 5539 5538 5538 5537 5537 5537 5536 5536 5535 5535 5534 5533 5532 5531 5530 5529 5527 5526 5525 5524 5522 5521 5519 5517 5516 5515 5515 5515 5514 5513 5512 5512 5512 5511 5510 5510 5509 5508 5507 5507 5507 5505 5503 5501 5499 5497 5496 5494 5492 5490 5488 5487 5485 5484 5482 5481 5479 5477 5476 5475 5474 5472 5471 5470 5469 5467 5466 5465 5463 5462 5461 5459 5458 5457 5455 5454 5453 5452 5451 5450
5538 5538 5537 5537 5536 5535 5535 5534 5534 5534 5533 5533 5532 5532 5531 5531 5530 5529 5528 5527 5527 5526 5524 5522 5521 5520 5519 5517 5516 5514 5513 5512 5512 5512 5511 5510 5509 5509 5509 5508 5507 5506 5505 5504 5503 5502 5502 5502 5500 5498 5496 5494 5492 5490 5488 5486 5484 5482 5480 5479 5477 5476 5474 5472 5471 5470 5469 5468 5467 5465 5464 5462 5461 5460 5458 5457 5456 5454 5452 5451 5449 5448 5447 5446 5445 5444
5535 5534 5534 5533 5532 5532 5532 5531 5531 5530 5530 5529 5529 5528 5527 5527 5526 5525 5524 5524 5523 5522 5521 5519 5518 5517 5515 5514 5512 5511 5510 5509 5509 5508 5508 5507 5507 5506 5506 5504 5503 5502 5502 5501 5500 5498 5498 5497 5497 5495 5493 5491 5489 5487 5484 5482 5479 5477 5476 5474 5473 5471 5470 5468 5467 5466 5465 5463 5462 5461 5460 5458 5457 5455 5453 5452 5450 5448 5447 5445 5443 5442 5441 5439 5438 5437
5532 5531 5530 5530 5529 5529 5528 5527 5527 5527 5526 5526 5525 5524 5524 5523 5522 5522 5521 5520 5519 5518 5517 5516 5514 5513 5512 5511 5510 5508 5507 5506 5506 5505 5505 5504 5504 5503 5502 5501 5500 5499 5498 5497 5496 5495 5494 5493 5492 5491 5490 5487 5485 5482 5480 5478 5476 5474 5472 5470 5469 5467 5466 5465 5463 5462 5461 5460 5458 5457 5455 5453 5452 5450 5448 5447 5445 5443 5441 5439 5437 5436 5434 5433 5432 5431
5528 5527 5527 5527 5526 5525 5525 5524 5524 5523 5523 5522 5522 5521 5520 5520 5519 5518 5517 5517 5516 5515 5513 5512 5512 5510 5509 5508 5507 5506 5505 5504 5503 5502 5502 5501 5500 5500 5499 5498 5497 5495 5494 5493 5492 5491 5490 5489 5487 5487 5485 5484 5482 5479 5476 5474 5472 5470 5469 5467 5465 5464 5462 5461 5460 5458 5457 5456 5454 5452 5450 5448 5447 5445 5443 5441 5439 5437 5436 5433 5432 5430 5428 5427 5425 5424
5525 5524 5524 5523 5523 5522 5522 5521 5521 5520 5520 5519 5518 5518 5517 5516 5516 5515 5514 5513 5512 5511 5510 5509 5508 5507 5506 5505 5504 5503 5502 5501 5500 5499 5498 5498 5497 5497 5496 5495 5493 5492 5490 5489 5488 5487 5486 5485 5483 5482 5481 5479 5478 5476 5473 5471 5469 5467 5465 5464 5462 5460 5459 5457 5456 5454 5453 5451 5449 5447 5446 5444 5442 5440 5438 5436 5434 5432 5430 5428 5426 5424 5422 5421 5419 5418
5522 5521 5521 5520 5520 5519 5518 5518 5517 5517 5516 5516 5515 5514 5514 5513 5512 5512 5511 5510 5509 5508 5507 5506 5505 5504 5503 5502 5501 5500 5499 5498 5497 5496 5495 5494 5494 5493 5492 5491 5490 5488 5487 5485 5484 5483 5482 5481 5479 5478 5477 5475 5474 5472 5470 5468 5465 5463 5462 5460 5458 5457 5455 5453 5452 5450 5448 5447 5445 5443 5441 5439 5437 5436 5434 5432 5430 5427 5425 5423 5421 5419 5417 5415 5413 5412
5519 5518 5517 5517 5517 5516 5515 5515 5514 5514 5513 5512 5512 5511 5511 5510 5509 5508 5507 5507 5506 5505 5504 5503 5502 5501 5500 5499 5498 5497 5496 5495 5494 5493 5492 5491 5490 5489 5489 5487 5486 5485 5483 5482 5481 5479 5478 5477 5476 5474 5473 5472 5470 5468 5467 5465 5463 5461 5458 5457 5455 5453 5451 5449 5448 5446 5444 5442 5441 5439 5437 5435 5433 5431 5429 5427 5425 5423 5421 5419 5417 5415 5412 5410 5408 5407
5516 5515 5515 5514 5514 5513 5512 5512 5511 5510 5510 5509 5508 5508 5507 5507 5506 5505 5504 5503 5503 5502 5501 5500 5499 5498 5497 5496 5495 5494 5492 5492 5491 5490 5489 5488 5487 5486 5485 5484 5482 5481 5480 5478 5477 5476 5475 5473 5472 5471 5470 5468 5467 5465 5463 5462 5460 5457 5456 5453 5452 5450 5447 5446 5444 5442 5440 5438 5436 5434 5432 5431 5428 5427 5425 5422 5421 5419 5417 5414 5412 5410 5408 5406 5404 5402
5512 5512 5512 5511 5511 5510 5509 5509 5508 5507 5507 5506 5505 5505 5504 5503 5502 5502 5501 5500 5500 5499 5498 5497 5496 5495 5494 5493 5492 5491 5490 5489 5487 5487 5486 5484 5483 5482 5482 5480 5479 5478 5476 5475 5474 5472 5471 5470 5468 5467 5466 5465 5463 5462 5460 5458 5456 5454 5452 5450 5448 5446 5444 5442 5440 5438 5436 5434 5432 5430 5428 5427 5424 5422 5420 5418 5417 5414 5412 5410 5408 5406 5403 5401 5399 5397
5509 5509 5508 5508 5508 5507 5506 5506 5505 5504 5503 5503 5502 5501 5501 5500 5499 5499 5498 5497 5497 5496 5495 5494 5493 5492 5491 5490 5489 5487 5487 5486 5485 5483 5482 5481 5480 5479 5478 5477 5476 5474 5473 5472 5471 5469 5468 5467 5465 5464 5462 5461 5460 5458 5457 5454 5452 5450 5448 5447 5445 5443 5441 5438 5436 5434 5432 5430 5428 5427 5424 5422 5421 5418 5416 5414 5412 5410 5408 5406 5403 5401 5399 5397 5395 5393
5506 5506 5506 5505 5505 5504 5503 5502 5502 5501 5500 5499 5499 5498 5497 5497 5496 5496 5495 5494 5494 5493 5492 5491 5490 5489 5488 5487 5486 5485 5483 5482 5482 5481 5479 5478 5477 5476 5475 5473 5472 5471 5470 5469 5467 5466 5465 5463 5462 5460 5459 5457 5456 5454 5453 5451 5448 5446 5445 5443 5442 5440 5438 5435 5432 5430 5428 5427 5425 5423 5421 5418 5417 5414 5412 5410 5407 5405 5403 5401 5399 5397 5394 5392 5390 5388
5503 5503 5502 5502 5502 5501 5500 5499 5499 5498 5497 5497 5496 5495 5495 5494 5493 5493 5492 5492 5491 5490 5489 5488 5487 5486 5485 5484 5483 5482 5480 5479 5478 5477 5476 5475 5474 5473 5472 5471 5469 5468 5467 5466 5465 5463 5462 5460 5459 5457 5455 5454 5452 5451 5449 5447 5445 5443 5441 5439 5438 5437 5435 5432 5430 5427 5425 5423 5421 5419 5417 5414 5412 5410 5408 5406 5403 5401 5398 5396 5394 5392 5389 5387 5385 5383
5500 5500 5499 5499 5498 5498 5497 5497 5496 5495 5494 5494 5493 5492 5492 5491 5491 5490 5489 5489 5488 5487 5486 5485 5484 5483 5482 5481 5480 5479 5477 5476 5475 5474 5473 5472 5471 5470 5469 5468 5467 5465 5464 5463 5462 5461 5459 5457 5456 5453 5452 5450 5448 5447 5445 5443 5442 5440 5438 5436 5435 5433 5431 5429 5427 5424 5422 5419 5417 5414 5412 5410 5408 5406 5403 5401 5399 5396 5394 5391 5389 5387 5384 5382 5379 5377
5497 5497 5496 5496 5495 5495 5494 5494 5493 5492 5492 5491 5490 5490 5489 5488 5488 5487 5487 5486 5485 5484 5483 5482 5481 5480 5479 5478 5477 5476 5474 5473 5472 5471 5470 5469 5468 5467 5466 5465 5464 5462 5462 5460 5459 5458 5456 5454 5452 5450 5448 5447 5445 5443 5442 5440 5438 5437 5435 5433 5431 5429 5427 5425 5423 5421 5418 5415 5413 5410 5407 5405 5403 5401 5399 5397 5394 5392 5389 5387 5384 5382 5379 5377 5374 5372
5494 5493 5493 5493 5492 5492 5492 5491 5490 5490 5489 5488 5488 5487 5487 5486 5485 5484 5484 5483 5482 5481 5480 5479 5478 5477 5476 5475 5474 5473 5472 5471 5469 5468 5467 5466 5465 5464 5463 5462 5461 5460 5458 5457 5456 5455 5453 5451 5449 5447 5445 5443 5442 5440 5438 5437 5435 5433 5432 5430 5427 5425 5423 5422 5419 5417 5414 5412 5409 5406 5403 5400 5398 5396 5394 5392 5389 5387 5384 5382 5379 5377 5374 5372 5369 5367
5491 5491 5490 5490 5490 5489 5489 5488 5487 5487 5486 5486 5485 5484 5484 5483 5482 5482 5481 5480 5479 5478 5477 5476 5475 5474 5472 5472 5471 5470 5469 5468 5467 5466 5465 5464 5462 5462 5460 5459 5458 5457 5455 5454 5452 5451 5449 5447 5445 5443 5442 5440 5438 5437 5435 5433 5431 5430 5428 5426 5424 5422 5419 5417 5414 5412 5409 5407 5404 5401 5398 5395 5392 5390 5388 5387 5385 5382 5379 5377 5374 5372 5369 5366 5364 5362
5488 5488 5487 5487 5487 5486 5486 5485 5485 5484 5483 5483 5482 5482 5481 5480 5480 5479 5478 5477 5476 5475 5474 5473 5472 5471 5470 5469 5468 5467 5467 5466 5465 5464 5462 5461 5460 5459 5457 5456 5455 5454 5452 5451 5449 5447 5445 5443 5442 5440 5438 5437 5435 5433 5432 5430 5427 5426 5424 5422 5420 5417 5415 5412 5410 5407 5404 5401 5398 5395 5392 5390 5387 5385 5383 5381 5379 5377 5375 5372 5369 5366 5364 5361 5358 5356
5485 5485 5485 5484 5484 5483 5483 5482 5482 5481 5481 5480 5479 5479 5478 5477 5477 5476 5475 5474 5473 5472 5471 5470 5469 5468 5467 5467 5466 5465 5464 5463 5462 5461 5460 5459 5457 5456 5455 5453 5452 5450 5449 5447 5446 5444 5442 5440 5438 5436 5434 5433 5431 5430 5428 5426 5424 5422 5420 5417 5415 5413 5410 5408 5405 5402 5399 5396 5393 5390 5387 5384 5382 5379 5377 5376 5374 5372 5370 5367 5364 5361 5358 5356 5353 5351
5482 5482 5482 5482 5481 5481 5480 5479 5479 5478 5477 5477 5476 5476 5475 5475 5474 5473 5472 5471 5470 5469 5469 5468 5467 5466 5465 5464 5464 5463 5462 5461 5460 5459 5457 5456 5455 5453 5452 5451 5449 5447 5446 5444 5442 5441 5439 5437 5435 5433 5431 5429 5428 5426 5424 5422 5420 5418 5415 5413 5411 5408 5406 5403 5400 5397 5394 5391 5388 5385 5382 5379 5376 5374 5372 5369 5368 5367 5365 5363 5360 5357 5353 5350 5347 5345
5480 5479 5479 5479 5478 5477 5477 5477 5476 5475 5474 5474 5473 5473 5472 5472 5471 5470 5469 5468 5468 5467 5466 5466 5465 5464 5463 5462 5462 5461 5460 5458 5457 5456 5455 5454 5452 5451 5450 5448 5447 5445 5443 5442 5440 5438 5437 5434 5432 5430 5428 5426 5424 5422 5420 5418 5416 5414 5412 5409 5406 5404 5401 5398 5396 5393 5390 5386 5383 5380 5377 5374 5371 5368 5366 5364 5362 5360 5359 5357 5355 5352 5348 5344 5341 5339
5477 5477 5476 5476 5475 5475 5474 5473 5473 5472 5471 5471 5470 5470 5469 5469 5468 5467 5467 5466 5466 5465 5464 5463 5462 5462 5461 5460 5459 5458 5457 5456 5455 5453 5452 5451 5450 5448 5447 5446 5444 5442 5441 5439 5437 5436 5434 5432 5430 5427 5425 5422 5421 5419 5416 5414 5412 5410 5407 5405 5402 5399 5396 5393 5391 5388 5385 5382 5378 5375 5372 5369 5366 5363 5361 5358 5356 5354 5353 5352 5350 5347 5343 5339 5335 5333